Погода Ивано-Франковск

Погода Ивано-Франковск : погода сейчас, прогноз погоды и архив. Всё, что Вы хотите узнать о погоде Ивано-Франковск!

Поиск расширенной информации на нашем сайте:

Другие новости

Новости СМИ2

Главная страница сайта

Новости сайта

03.07.2017

Напоминаем, что на нашем специализированном сайте Метеоцентр.Азия вы можете получить высокодетализированные автоматические прогнозы погоды по пунктам России, СНГ и мира в авиационном формате (включающие направление и скорость ветра, видимость, явления погоды, количество и форму облачности, нижнюю и верхнюю границу облачности).

Рекомендуем: Качественный синускан в наличии stimul20.ru.

Погода Ивано-Франковск - сегодня

Время (UTC), дата Ветер
(°,м/с) 
Видим.   Явления Облачность Т
(°С)
Тd
(°С)
f(%) Тe
(°С)
Pmin
(гПа)
dP
(гПа)
Po
(мм)
O2
(г/м3)
Тmin Tmax R s Состояние
почвы
18 19.08.17 280 (З) 50000 м    4/0 средняя 
[Ac trans]
+23.9 +15.9 61 +35  1015.2  0.5  738  270    +33.2       
21 19.08.17 270 (З) 40000 м    ясно 
+17.2 +15 87 +26  1016.6  0.6  738  277           
00 20.08.17 270 (З) 50000 м    ясно 
+18.4 +16.1 86 +30  1017.5  739  275           
03 20.08.17 270 (З) 20000 м    8/0 средняя 
[Ac trans]
+16.7 +15.9 95 +29  1017.1  -0.6  738  277           
06 20.08.17 тихо ()   20000 м    9/9 600 м 
[Sc]
+19 +16.9 88 +32  1016.9  0.1  738  274  +16.6         
09 20.08.17 090 (В) 20000 м    4/3 1200 м верхняя 
[Sc|Ci fib]
+24.3 +16.6 62 +36  1015  -1.3  737  269           
12 20.08.17 110 (В) 20000 м    6/4 1380 м средняя 
[Sc|Ac trans]
+31.4 +13.9 35 +39  1011.9  -2.3  736  263           
15 20.08.17 280 (З) 10 км  слаб. ливневой дождь  8/8 900 м кучево-дожд. 
[Cb cap]
+24 +19.2 75 +42  1012.4  -0.2  736  268           
18 20.08.17 340 (С) 10 км  в посл. час гроза{ливн. осадки}  10/5 900 м кучево-дожд., средняя 
[Cb cap|Ac und]
+19.4 +18.4 94 +36  1015.5  2.5  737  273    +32     
21 20.08.17 290 (З) 10 км  слаб. ливневой дождь  10/10 600 м кучево-дожд. 
[Cb calv]
+16.3 +15.4 94 +26  1017.4  1.5  739  277           
00 21.08.17 270 (З) 10 км  слаб. ливневой дождь  10/10 500 м кучево-дожд. 
[Cb calv]
+13.9 +13.5 97 +21  1018.7  0.9  739  281         
03 21.08.17 280 (З) 10 км  слаб. ливневой дождь  10/10 360 м кучево-дожд. 
[Cb cap]
+13 +12.6 97 +18  1018.9  0.1  739  282           
06 21.08.17 280 (З) 10 км  слаб. ливневой дождь  10/10 360 м кучево-дожд. 
[Cb cap]
+12.8 +12.2 96 +18  1019.3  0.4  740  282  +12.7       
09 21.08.17 270 (З) 5000 м  слаб. ливневой дождь  10/10 480 м кучево-дожд. 
[Cb cap]
+13.2 +12.8 97 +18  1019.5  0.2  740  282           
12 21.08.17 240 (ЮЗ) 10 км  {ливн. осадки}  10/10 1000 м кучево-дожд. 
[Cb cap]
+14 +13.1 94 +21  1019.1  -0.3  740  281         
15 21.08.17 тихо ()   10 км    10/8 600 м средняя 
[Sc|Ac und]
+16.3 +12.9 80 +22  1017.9  -0.9  739  278           
18 21.08.17 250 (З) 10 км    8/4 1000 м средняя 
[Sc|Ac trans]
+14 +13.3 96 +21  1017.7  -0.4  739  280    +16.4     
21 21.08.17 270 (З) 10 км    9/6 1200 м средняя 
[Sc|Ac trans]
+12.8 +11.1 89 +16  1018.2  0.3  739  282           
00 22.08.17 270 (З) 10 км    6/6 1200 м 
[Sc]
+11.5 +10.5 94 +13  1018.3  -0.1  739  284           
03 22.08.17 260 (З) 10 км    3/0 средняя 
[Ac trans]
+9.2 +8.8 97 +9  1018.8  0.2  739  286           
06 22.08.17 270 (З) 20000 м    4/3 1080 м средняя 
[Sc|Ac trans]
+13.4 +11.3 87 +16  1018.4  0.2  739  282  +9.1         
09 22.08.17 290 (З) 30000 м    8/5 1000 м средняя 
[Cu med, cong|Ac trans]
+17.8 +11 64 +21  1017.2  -0.7  738  277           
12 22.08.17 270 (З) 50000 м    9/8 930 м средняя 
[Sc|Ac trans]
+17.6 +11 65 +21  1016.1  -1.1  738  277           
15 22.08.17 270 (З) 50000 м  {ливн. осадки}  8/6 1300 м средняя 
[Sc|Ac und]
+17.9 +11.1 64 +21  1015.3  -0.7  737  277           
18 22.08.17 280 (З) 20000 м  {ливн. осадки}  8/6 1300 м средняя 
[Sc|Ac und]
+14.1 +10.9 81 +18  1015.9  0.1  737  280    +18.8       
Время (UTC), дата Ветер
(°,м/с) 
Видим.   Явления Облачность Т
(°С)
Тd
(°С)
f(%) Тe
(°С)
Pmin
(гПа)
dP
(гПа)
Po
(мм)
O2
(г/м3)
Тmin Tmax R s Состояние
почвы

Для получения пояснительной информации подведите курсор к названию столбца.

ПОГОДА Ивано-Франковск - архив

Всё, что Вы хотите узнать о погоде Ивано-Франковск - удобно и подробно!

Выберите нужную дату (начиная с 1 января 2015* года) и нажмите кнопку "Найти".
Будут отображены архивные сводки погоды по пункту Ивано-Франковск, начиная с указанной даты.


Отображать данные в формате CSV (для использования в таблицах Excel)


Внимание! Наш архив погоды предназначен исключительно для личного некоммерческого использования в познавательных целях. Если Вам необходимы официальные справки о состоянии погоды (для производственных, юридических, коммерческих и т.п. целей), обращайтесь в органы Росгидромета.

*Примечание: данная дата относится к архиву по метеостанциям СССР (Россия, СНГ, Балтия).
Архив по метеостанциям Зарубежной Европы и Азии (кроме Китая) хранится 10 дней, по другим регионам земного шара (Китай, Африка, Америка, Австралия, Океания) - 1 день.

Ивано-Франковск - район местоположения метеостанции


Название, широта, долгота, высота метеостанции:
Ивано-Франковск 49°ш. 24.4°д. 280 м над ур. моря [Украина]

Дополнительная информация

В oтличие oт бoльшинства пoгoдных сайтoв мы публикуем пoдрoбную метеoинфoрмацию в детальнoм прoфессиoнальнoм фoрмате.

Характеристики температуры и влажнoсти вoздуха измеряются на высoте 2 м в тени вдали oт зданий и деревьев.
Скoрoсть ветра измеряется на высoте 10 м (на урoвне рoста челoвека скoрoсть ветра ниже в 1.5-2 раза). Если метеoстанция нахoдится в гoрoде или в лесу, тo скoрoсть ветра занижена на 2-4 м/с пo сравнению с oткрытым местoм. Скoрoсть ветра над акватoриями крупных рек и oзёр, а также на вершинах хoлмoв на 2-5 м/с выше, чем в oбычных услoвиях.
Атмoсфернoе давление в разных тoчках местнoсти мoжет значительнo oтличаться oт давления на метеoстанции, в зависимoсти oт услoвий рельефа (при пoдъёме на 10 м давление пoнижается примернo на 1 мм рт.ст.).